CAPE
288 898 1348 1353 1390 1066 934 915 393 216 127 711 737 542 1038 1169 1215 1450 1288 1245 1429 1071 1266 1693 1656 1539 1473 1437 1200 1298 1340 1335 1472 1315 1117 905 815 595 311 175 117 16 103
329 1002 1457 1034 1099 1354 988 614 293 124 35 15 212 474 526 865 1255 1239 1492 1353 1647 1486 1072 1589 1604 1675 1546 1537 1340 1479 1482 1398 1392 1283 1137 1413 1263 819 427 216 120 68 7
828 1035 1718 1205 1400 1357 969 433 499 85 54 4 0 42 417 277 487 1147 1129 1167 1063 1388 1560 1627 1629 1656 1632 1643 1646 1605 1355 1200 1224 1209 1278 892 778 650 495 252 174 75 9
819 1124 1563 1099 1517 1095 585 174 402 105 271 60 0 0 40 408 282 330 698 379 532 1039 1434 1590 1615 1438 1431 1558 1459 1350 1268 1227 1153 1141 914 819 965 1067 793 353 194 102 158
769 915 816 1069 1439 1303 321 164 355 598 542 57 0 0 0 119 117 198 211 217 338 552 858 1105 1445 1607 1522 1522 1325 1155 1117 1213 1233 1250 673 723 989 1071 923 591 134 83 139
514 542 891 1452 1183 684 415 222 240 520 196 8 0 0 0 0 73 91 78 112 16 239 379 532 1246 1298 1412 1445 1466 1180 1132 1033 893 761 492 789 787 1245 975 761 431 54 34
188 512 1320 1099 905 780 686 626 345 685 439 21 0 0 0 0 0 0 0 0 0 0 21 98 415 1201 1279 1321 1708 1354 1106 771 22 482 353 436 777 1131 1008 862 688 347 40
487 903 939 1276 1436 1054 916 792 249 350 659 233 8 0 0 0 0 0 0 0 0 0 0 0 53 460 1145 1367 1619 1612 1301 718 0 56 232 372 1361 1019 821 921 842 665 187
409 528 564 1202 825 900 664 562 491 916 864 436 179 100 27 0 0 0 0 0 0 0 0 0 0 121 624 834 1261 1747 1474 948 0 44 206 134 1313 748 735 733 773 839 687
0 0 0 920 681 573 407 941 891 850 931 1014 956 847 580 429 372 212 118 28 1 0 0 0 0 0 91 264 599 1406 1568 851 0 0 82 52 1078 768 849 792 743 720 953
0 0 5 19 282 510 334 422 466 766 787 459 157 274 145 10 2 42 77 264 243 348 55 0 0 0 0 28 150 352 691 317 3 0 0 345 1021 1015 1076 1102 988 893 869
0 0 0 0 0 0 0 0 0 0 0 0 0 0 0 0 0 0 2 192 173 220 263 25 3 2 0 0 0 0 0 0 6 0 0 200 1231 951 1261 1231 1131 1106 1121
0 0 0 0 0 0 0 0 0 0 0 0 0 0 0 0 0 0 0 0 0 4 0 0 0 0 0 0 0 0 0 0 0 0 0 11 890 1104 1251 1126 925 1046 1019
0 0 0 0 0 0 0 0 0 0 0 0 0 0 0 0 0 0 0 0 0 0 1 2 0 0 0 0 0 0 0 0 0 0 0 0 476 1092 1032 1134 797 525 459
0 0 0 0 0 0 0 0 0 0 0 0 0 0 0 0 0 0 0 0 0 0 0 0 0 0 0 0 0 0 0 0 0 0 0 0 0 839 975 992 897 672 363
0 0 0 0 0 0 0 0 0 0 0 0 0 0 0 0 0 0 0 0 0 0 0 0 0 0 0 0 0 0 0 0 0 0 0 0 0 246 1078 971 1086 868 583
0 0 0 0 0 0 0 0 0 0 0 0 0 0 0 0 0 0 0 0 0 0 0 0 0 0 0 0 0 0 0 0 0 0 0 0 0 0 728 1386 1394 1113 808
0 0 0 0 0 0 0 0 0 0 0 0 0 0 0 0 0 0 0 0 0 0 0 0 0 0 0 0 0 0 0 0 0 0 0 0 0 0 207 1192 1361 1256 1030
0 0 0 0 0 0 0 0 0 0 0 0 0 0 0 0 0 0 0 0 0 0 0 0 0 0 0 0 0 0 0 0 0 0 0 0 0 0 2 171 1061 1001 1322
0 0 0 0 0 0 0 0 0 0 0 0 0 0 0 0 0 0 0 0 0 0 0 0 0 0 0 0 0 0 0 0 0 0 0 0 0 0 0 0 22 491 953
0 0 0 0 0 0 0 0 0 0 0 0 0 0 0 0 0 0 0 0 0 0 0 0 0 0 0 0 0 0 0 0 0 0 0 0 0 0 0 0 0 9 99
0 0 0 0 0 0 0 0 0 0 0 0 0 0 0 0 0 0 0 0 0 0 0 0 0 0 0 0 0 0 0 0 0 0 0 0 0 0 0 0 0 0 0
0 0 0 0 0 0 0 0 0 0 0 0 0 0 0 0 0 0 0 0 0 0 0 0 0 0 0 0 0 0 0 0 0 0 0 0 0 0 0 0 0 0 0
0 0 0 0 0 0 0 0 0 0 0 0 0 0 0 0 0 0 0 0 0 0 0 0 0 0 0 0 0 0 0 0 0 0 0 0 0 0 0 0 0 0 0
0 0 0 0 0 0 0 0 0 0 0 0 0 0 0 0 0 0 0 0 0 0 0 0 0 0 0 0 0 0 0 0 0 0 0 0 0 0 0 0 0 0 0
0 0 0 0 0 0 0 0 0 0 0 0 0 0 0 0 0 0 0 0 0 0 0 0 0 0 0 0 0 0 0 0 0 0 0 0 0 0 0 0 0 0 0
CIN
-49 -10 -0 -0 -0 -0 -2 -0 -2 -10 -43 -0 -0 -0 -0 -0 -0 -0 -0 -0 -0 -0 -0 -0 -0 -0 -0 -0 -0 -0 -0 -0 -0 -0 -0 -0 -0 -4 -33 -77 -102 -178 -110
-93 -10 -0 -1 -3 -0 -3 -0 -5 -38 -171 -271 -42 -1 -0 -0 -0 -0 -0 -0 -0 -0 -0 -0 -0 -0 -0 -0 -0 -0 -0 -0 -0 -1 -0 -0 -0 -0 -12 -53 -84 -123 -78
-39 -11 -1 -4 -1 -0 -0 -0 -0 -66 -104 -214 -0 -187 -6 -39 -8 -0 -0 -0 -0 -0 -0 -0 -0 -0 -0 -0 -0 -0 -0 -1 -1 -3 -5 -12 -2 -0 -4 -41 -59 -103 -53
-64 -29 -5 -7 -1 -0 -3 -47 -1 -49 -11 -103 -0 -0 -184 -7 -37 -28 -0 -27 -22 -0 -0 -0 -0 -1 -0 -0 -0 -2 -2 -1 -1 -3 -18 -16 -5 -0 -0 -19 -52 -87 -69
-79 -59 -50 -9 -0 -0 -10 -36 -3 -0 -0 -108 -0 -0 -0 -80 -85 -65 -75 -85 -49 -17 -0 -0 -0 -0 -2 -1 -3 -8 -4 -3 -10 -8 -33 -33 -12 -1 -0 -0 -69 -98 -68
-122 -81 -15 -0 -0 -1 -5 -9 -12 -0 -20 -89 -0 -0 -0 -2 -114 -107 -135 -133 -247 -90 -60 -29 -0 -0 -4 -3 -2 -7 -5 -9 -31 -38 -60 -32 -33 -2 -3 -1 -10 -111 -122
-150 -88 -7 -2 -1 -0 -1 -0 -1 -0 -2 -104 -0 -0 -0 -0 -0 -0 -0 -0 -0 -13 -161 -138 -49 -0 -2 -9 -5 -6 -6 -28 -228 -66 -85 -77 -36 -6 -1 -0 -0 -23 -118
-114 -73 -44 -10 -1 -1 -1 -0 -10 -2 -1 -10 -75 -0 -0 -0 -0 -0 -0 -0 -0 -0 -0 -0 -164 -39 -3 -4 -4 -6 -8 -36 -0 -101 -121 -86 -19 -6 -3 -0 -0 -0 -55
-96 -90 -73 -24 -26 -15 -17 -16 -8 -1 -2 -6 -28 -51 -67 -0 -0 -0 -0 -0 -0 -0 -0 -0 -0 -111 -19 -10 -6 -1 -10 -18 -0 -222 -125 -149 -11 -11 -6 -3 -1 -0 -0
-0 -0 -0 -30 -39 -43 -43 -5 -2 -4 -1 -0 -1 -4 -10 -16 -26 -42 -83 -179 -9 -0 -0 -0 -0 -0 -108 -56 -20 -0 -0 -18 -0 -0 -159 -193 -16 -7 -4 -8 -6 -1 -0
-0 -0 -62 -46 -93 -49 -58 -36 -40 -12 -8 -21 -35 -39 -33 -86 -96 -99 -140 -33 -38 -18 -111 -0 -0 -0 -0 -159 -74 -44 -22 -74 -107 -0 -0 -73 -13 -3 -0 -3 -6 -5 -0
-0 -0 -0 -0 -0 -0 -0 -0 -0 -0 -0 -0 -0 -0 -0 -0 -0 -0 -21 -82 -98 -76 -51 -183 -92 -128 -0 -0 -0 -0 -0 -0 -126 -0 -0 -86 -5 -2 -1 -0 -6 -3 -0
-0 -0 -0 -0 -0 -0 -0 -0 -0 -0 -0 -0 -0 -0 -0 -0 -0 -0 -0 -12 -0 -94 -0 -0 -0 -0 -0 -0 -0 -0 -0 -0 -0 -0 -0 -156 -11 -3 -2 -5 -9 -1 -1
-0 -0 -0 -0 -0 -0 -0 -0 -0 -0 -0 -0 -0 -0 -0 -0 -0 -0 -0 -0 -0 -8 -115 -135 -0 -0 -0 -0 -0 -0 -0 -0 -0 -0 -0 -0 -23 -1 -1 -0 -2 -3 -3
-0 -0 -0 -0 -0 -0 -0 -0 -0 -0 -0 -0 -0 -0 -0 -0 -0 -0 -0 -0 -0 -0 -0 -0 -0 -0 -0 -0 -0 -0 -0 -0 -0 -0 -0 -0 -0 -12 -0 -0 -0 -0 -3
-0 -0 -0 -0 -0 -0 -0 -0 -0 -0 -0 -0 -0 -0 -0 -0 -0 -0 -0 -0 -0 -0 -0 -0 -0 -0 -0 -0 -0 -0 -0 -0 -0 -0 -0 -0 -0 -52 -4 -0 -0 -0 -0
-0 -0 -0 -0 -0 -0 -0 -0 -0 -0 -0 -0 -0 -0 -0 -0 -0 -0 -0 -0 -0 -0 -0 -0 -0 -0 -0 -0 -0 -0 -0 -0 -0 -0 -0 -0 -0 -0 -20 -0 -0 -0 -0
-0 -0 -0 -0 -0 -0 -0 -0 -0 -0 -0 -0 -0 -0 -0 -0 -0 -0 -0 -0 -0 -0 -0 -0 -0 -0 -0 -0 -0 -0 -0 -0 -0 -0 -0 -0 -0 -0 -71 -2 -1 -0 -0
-0 -0 -0 -0 -0 -0 -0 -0 -0 -0 -0 -0 -0 -0 -0 -0 -0 -0 -0 -0 -0 -0 -0 -0 -0 -0 -0 -0 -0 -0 -0 -0 -0 -0 -0 -0 -0 -0 -90 -59 -1 -7 -1
-0 -0 -0 -0 -0 -0 -0 -0 -0 -0 -0 -0 -0 -0 -0 -0 -0 -0 -0 -0 -0 -0 -0 -0 -0 -0 -0 -0 -0 -0 -0 -0 -0 -0 -0 -0 -0 -0 -0 -0 -107 -16 -5
-0 -0 -0 -0 -0 -0 -0 -0 -0 -0 -0 -0 -0 -0 -0 -0 -0 -0 -0 -0 -0 -0 -0 -0 -0 -0 -0 -0 -0 -0 -0 -0 -0 -0 -0 -0 -0 -0 -0 -0 -0 -99 -55
-0 -0 -0 -0 -0 -0 -0 -0 -0 -0 -0 -0 -0 -0 -0 -0 -0 -0 -0 -0 -0 -0 -0 -0 -0 -0 -0 -0 -0 -0 -0 -0 -0 -0 -0 -0 -0 -0 -0 -0 -0 -0 -0
-0 -0 -0 -0 -0 -0 -0 -0 -0 -0 -0 -0 -0 -0 -0 -0 -0 -0 -0 -0 -0 -0 -0 -0 -0 -0 -0 -0 -0 -0 -0 -0 -0 -0 -0 -0 -0 -0 -0 -0 -0 -0 -0
-0 -0 -0 -0 -0 -0 -0 -0 -0 -0 -0 -0 -0 -0 -0 -0 -0 -0 -0 -0 -0 -0 -0 -0 -0 -0 -0 -0 -0 -0 -0 -0 -0 -0 -0 -0 -0 -0 -0 -0 -0 -0 -0
-0 -0 -0 -0 -0 -0 -0 -0 -0 -0 -0 -0 -0 -0 -0 -0 -0 -0 -0 -0 -0 -0 -0 -0 -0 -0 -0 -0 -0 -0 -0 -0 -0 -0 -0 -0 -0 -0 -0 -0 -0 -0 -0
-0 -0 -0 -0 -0 -0 -0 -0 -0 -0 -0 -0 -0 -0 -0 -0 -0 -0 -0 -0 -0 -0 -0 -0 -0 -0 -0 -0 -0 -0 -0 -0 -0 -0 -0 -0 -0 -0 -0 -0 -0 -0 -0
Wind_Speed
3 5 9 7 7 8 7 12 11 10 9 9 9 10 10 11 11 12 11 12 12 11 11 11 10 11 12 12 12 11 11 12 12 12 12 12 12 13 13 13 11 6 11
8 6 10 9 5 7 9 11 10 9 9 8 9 10 9 10 11 10 12 11 12 11 11 11 10 10 10 10 10 9 10 9 9 10 11 9 9 12 13 11 10 9 11
8 5 7 11 8 11 11 10 8 9 8 7 7 7 8 8 10 12 11 12 11 11 11 10 10 8 9 8 8 8 7 7 7 6 8 4 5 11 11 11 10 11 11
9 6 6 11 10 10 11 8 7 6 8 6 6 6 6 6 7 8 9 9 8 10 11 10 10 8 6 6 5 5 4 3 2 5 4 3 3 9 10 10 10 10 10
7 6 6 10 8 8 9 7 7 7 6 5 6 6 5 4 5 6 6 6 6 6 8 8 8 8 6 5 3 3 3 5 4 5 3 3 2 7 9 9 8 8 7
6 4 5 8 10 8 7 6 6 6 5 5 5 5 5 4 4 4 4 4 4 4 6 6 7 6 6 5 4 1 4 7 5 4 4 3 3 6 8 6 6 6 6
5 4 5 9 9 8 6 5 5 6 5 4 4 4 4 3 3 3 2 3 3 3 4 5 6 6 5 7 7 2 5 7 4 2 2 3 3 6 6 5 5 4 4
6 6 5 8 9 7 6 5 3 3 3 3 3 2 2 2 1 2 2 2 1 2 3 4 5 5 6 7 8 5 4 5 4 2 3 2 6 6 4 4 4 5 4
4 4 3 4 4 6 5 5 4 4 3 2 1 0 1 1 2 1 2 3 3 3 3 4 4 5 6 8 9 8 6 4 3 1 4 3 7 7 6 5 4 4 5
7 6 1 2 4 5 4 5 4 4 5 5 8 7 4 3 4 4 4 3 5 6 6 6 6 6 6 7 9 10 9 7 4 3 3 3 9 8 8 8 7 6 6
9 8 8 7 6 7 7 9 10 12 13 12 11 13 9 4 5 5 6 7 7 8 8 8 8 8 9 9 9 9 10 1 2 3 3 9 13 10 10 9 9 9 8
8 8 7 8 7 7 8 7 6 7 6 7 8 7 5 6 7 8 10 13 12 11 11 9 10 10 8 4 4 8 3 5 3 3 3 11 13 11 10 9 9 10 10
4 5 7 7 8 8 7 5 4 5 4 5 9 7 6 6 6 6 5 5 5 10 4 5 5 4 5 4 4 4 5 5 3 3 5 12 15 14 12 12 11 11 10
7 5 6 7 9 8 5 5 5 5 4 5 5 8 5 4 5 6 5 6 6 6 7 5 3 4 5 5 5 6 6 5 3 3 5 12 14 17 16 15 13 13 12
9 6 6 7 7 6 8 5 5 5 5 4 5 6 5 5 5 4 4 4 5 6 5 5 5 5 5 5 5 5 6 6 6 4 3 14 16 19 20 18 17 15 14
8 7 5 8 7 7 6 6 4 4 4 5 5 5 6 4 4 4 5 5 5 5 5 4 4 4 5 5 6 5 5 5 5 6 4 6 15 19 22 22 20 17 16
5 7 8 8 6 8 6 5 4 3 4 4 4 6 6 5 5 5 4 5 4 4 6 5 5 4 4 5 5 5 5 5 5 6 5 5 6 13 20 22 21 20 18
7 8 6 6 7 6 5 4 4 4 4 3 4 4 6 6 5 4 4 5 5 4 4 5 5 4 5 4 4 5 4 5 6 8 6 5 4 6 10 20 21 21 20
7 8 7 6 6 5 4 3 3 4 3 3 3 3 5 5 4 3 3 4 5 4 4 3 3 2 4 5 5 5 5 5 6 6 7 8 6 6 5 11 18 20 21
7 6 7 5 6 4 3 3 2 2 3 3 3 4 6 4 6 4 4 4 3 3 4 4 3 3 4 5 6 6 5 5 5 5 5 7 6 6 6 7 7 10 19
5 7 7 6 4 2 2 2 1 1 2 2 3 5 6 5 6 6 5 6 5 5 5 4 3 3 3 2 3 5 4 7 6 5 4 4 5 6 6 5 5 6 7
8 7 5 5 5 3 2 2 2 2 2 3 2 4 4 5 6 5 5 5 6 4 6 6 4 3 3 2 3 2 6 6 4 2 3 3 4 4 5 4 5 6 6
7 8 8 6 5 4 4 2 0 1 1 2 2 3 3 5 4 4 5 4 6 3 4 4 4 3 4 3 4 3 4 5 3 3 4 4 5 3 5 5 5 6 6
8 6 7 7 6 5 5 3 3 2 2 2 2 3 5 4 5 5 5 5 5 4 5 4 4 3 3 4 3 4 5 4 6 10 2 4 5 6 6 4 4 4 5
5 7 7 6 5 4 5 3 3 2 2 2 2 5 5 5 6 6 6 6 6 4 5 6 6 5 3 3 4 3 3 3 5 6 10 5 3 4 5 4 5 4 5
5 5 6 6 5 4 3 2 0 2 4 3 3 4 4 4 5 6 7 6 6 6 6 6 6 6 6 5 4 5 6 5 4 4 5 8 7 5 5 5 5 5 5
Wind_Direction
201 194 153 143 132 131 117 95 85 76 70 53 68 57 52 61 64 61 64 63 58 57 57 66 74 77 83 87 85 86 83 79 76 75 74 75 72 70 67 64 54 48 56
146 185 161 148 148 137 108 99 94 87 80 67 51 60 53 55 57 65 61 62 56 56 60 54 68 74 83 91 92 89 89 89 91 91 87 69 71 72 66 64 62 57 64
144 176 162 153 156 129 119 108 110 102 93 79 73 72 54 56 63 56 61 53 53 54 54 51 48 57 69 85 91 91 87 86 82 84 100 87 80 73 69 68 62 55 65
161 172 165 162 165 145 130 123 117 95 108 88 90 90 77 65 81 63 55 54 52 42 43 42 34 32 85 81 89 86 73 43 26 93 64 61 88 86 73 64 65 62 67
178 173 177 166 170 150 121 130 120 101 101 95 96 95 87 82 72 69 64 62 50 44 34 31 25 23 38 69 56 71 44 19 346 167 119 96 62 86 74 67 58 64 62
172 149 166 148 138 143 137 138 125 116 111 104 102 99 90 89 86 69 57 44 38 32 26 16 15 14 7 8 337 11 49 40 64 133 155 167 106 120 103 92 77 72 70
104 138 161 162 163 157 153 149 145 140 125 113 104 99 97 80 63 40 33 35 26 11 7 359 352 356 349 345 335 328 67 62 59 117 252 152 152 131 127 133 125 96 86
139 141 170 178 157 161 163 156 154 148 131 106 108 103 94 87 65 27 358 343 338 333 335 335 330 327 343 337 331 336 29 64 52 198 199 227 178 158 159 169 172 149 131
132 145 170 177 172 178 161 134 136 101 134 89 73 18 351 350 307 297 298 308 307 312 310 309 303 311 317 326 329 316 333 36 35 188 193 207 227 182 182 188 199 203 180
53 42 349 100 58 43 16 77 61 64 44 19 11 351 284 321 316 307 295 297 295 299 305 298 296 289 292 305 315 327 333 13 1 326 268 247 226 209 198 196 202 211 224
52 39 65 68 64 75 67 60 50 55 54 43 31 28 39 28 356 342 321 303 302 299 305 305 302 297 295 295 298 305 318 337 330 314 304 258 237 219 215 210 208 209 219
41 34 43 67 64 68 71 58 51 51 46 42 34 28 27 24 35 38 32 29 9 336 331 332 329 317 314 318 311 306 296 290 274 259 278 276 244 229 211 204 206 215 221
68 56 36 55 55 61 61 50 46 50 38 40 34 29 26 27 27 28 27 18 12 10 14 359 345 337 322 309 297 294 292 293 274 257 259 273 256 232 215 217 216 217 218
73 57 48 53 65 55 61 54 51 55 43 39 30 26 36 24 23 28 22 17 15 4 4 355 344 327 350 339 306 291 284 278 278 286 271 258 260 244 233 227 226 228 229
92 81 70 77 76 70 69 62 59 61 60 52 40 33 36 32 27 20 11 14 18 3 357 349 342 345 345 336 321 319 312 289 277 268 255 271 258 244 247 237 229 232 233
117 109 109 85 88 83 75 75 78 70 57 47 38 27 34 41 27 22 11 9 6 357 342 344 340 342 336 332 330 322 305 289 294 287 272 263 265 254 239 244 234 228 234
134 135 112 107 95 86 88 86 74 64 64 50 29 22 27 32 29 25 10 353 344 339 341 350 339 335 337 331 321 313 310 319 317 312 289 268 266 259 250 242 237 229 229
129 124 110 108 102 93 86 81 71 53 53 39 24 17 20 23 35 13 359 345 331 341 344 343 326 326 322 320 309 301 305 314 313 313 297 288 265 266 253 243 235 231 230
146 137 126 122 118 116 107 89 69 66 58 18 14 10 3 9 5 15 350 322 338 342 337 333 316 314 306 304 298 290 294 295 291 301 295 294 270 255 250 256 244 231 228
157 154 144 151 146 124 89 63 42 37 15 12 8 1 351 348 351 359 337 327 332 331 324 335 307 298 254 281 295 291 283 277 269 269 286 294 295 272 249 242 251 243 235
172 169 173 162 180 134 81 83 36 328 324 335 352 349 346 348 351 347 340 340 346 347 321 314 288 301 298 295 313 305 287 272 290 269 287 298 332 315 273 256 245 247 248
177 193 186 193 176 161 142 181 170 202 247 251 291 320 348 356 343 335 341 328 331 334 332 329 332 310 275 281 256 264 313 306 297 236 257 281 304 311 334 297 262 256 253
186 195 196 200 192 181 169 126 317 302 315 336 344 322 331 324 326 331 321 313 313 314 302 294 288 280 284 293 228 215 317 253 313 248 265 292 295 283 292 296 287 259 249
210 194 199 197 192 194 175 173 176 185 240 232 239 261 296 311 317 314 306 305 298 294 297 284 291 275 225 268 304 227 234 217 283 303 280 263 254 266 269 278 276 275 267
183 209 203 192 202 202 202 196 181 220 225 283 293 309 314 313 314 305 297 293 288 283 272 271 285 281 237 233 226 276 273 266 228 232 285 283 275 242 238 247 259 274 272
214 206 189 192 226 229 229 175 96 286 300 310 303 306 303 290 288 286 287 284 275 273 269 265 266 255 259 247 237 229 238 240 255 232 260 267 254 255 238 234 246 244 253